SCP
0 0 0 0 0 0 0 0 0 0 0 0 0 0 0 0 0 0 0 0 0 0 0 0 0 0 0 0 0 0 0 0 0 0 0 0 0 0 0 0 0 0 0 0
0 0 0 0 0 0 0 0 0 0 0 0 0 0 0 0 0 0 0 0 0 0 0 0 0 0 0 0 0 0 0 0 0 0 0 0 0 0 0 0 0 0 0 0
0 0 0 0 0 0 0 0 0 0 0 0 0 -0 0 0 0 0 0 0 0 0 0 0 0 0 0 0 0 0 0 0 0 0 0 0 0 0 0 0 0 0 0 0
0 0 0 0 0 0 0 0 0 0 0 0 0 -0 0 0 0 0 0 0 0 0 0 0 0 0 0 0 0 0 0 0 0 0 0 0 0 0 0 0 0 0 0 0
0 0 0 0 0 0 0 0 0 0 0 0 0 0 0 0 0 0 0 0 0 0 0 0 0 0 0 0 0 0 0 0 0 0 0 0 0 0 0 0 0 0 0 0
0 0 0 0 0 0 0 0 0 0 0 0 0 0 0 0 0 0 0 0 0 0 0 0 0 0 0 0 0 0 0 0 0 0 0 0 0 0 0 0 0 0 0 0
0 0 0 0 0 0 0 0 0 0 0 0 0 0 0 0 0 0 0 0 0 0 0 0 0 0 0 0 0 0 0 0 0 0 0 0 0 0 0 0 0 0 0 0
0 0 0 0 0 0 0 0 0 0 0 0 0 0 0 0 0 0 0 0 0 0 0 0 0 0 0 0 0 0 0 0 0 0 0 0 0 0 0 0 0 0 0 0
0 0 0 0 0 0 0 0 0 0 0 0 0 0 0 0 0 0 0 0 0 0 0 0 0 0 0 0 0 0 0 0 0 0 0 0 0 0 0 0 0 0 0 0
0 0 0 0 0 0 0 0 0 0 0 0 0 0 0 0 0 0 0 0 0 0 0 0 0 0 0 0 0 0 0 0 0 0 0 0 0 0 0 0 0 0 0 0
0 0 0 0 0 0 0 0 0 0 0 0 0 0 0 0 0 0 0 0 0 0 0 0 0 0 0 0 0 0 0 0 0 0 0 0 0 0 0 0 0 0 0 0
0 0 0 0 0 0 0 0 0 0 0 0 0 0 0 0 0 0 0 0 0 0 0 0 0 0 0 0 0 0 0 0 0 0 0 0 0 0 0 0 0 0 0 0
0 0 0 0 0 0 0 0 0 0 0 0 0 0 0 0 0 0 0 0 0 0 0 0 0 0 0 0 0 0 0 0 0 0 0 0 0 0 0 0 0 0 0 0
0 0 0 0 0 0 0 0 0 0 0 0 0 0 0 0 0 0 0 0 0 0 0 0 0 0 0 0 0 0 0 0 0 0 0 0 0 0 0 0 0 0 0 0
0 0 0 0 0 0 0 0 0 0 0 0 0 0 0 0 0 0 0 0 0 0 0 0 0 0 0 0 0 0 0 0 0 0 0 0 0 0 0 0 0 0 0 0
0 0 0 0 0 0 0 0 0 0 0 0 0 0 0 0 0 0 0 0 0 0 0 0 0 0 0 0 0 0 0 0 0 0 0 0 0 0 0 0 0 0 0 0
0 0 0 0 0 0 0 0 0 0 0 0 0 0 0 0 0 0 0 0 0 0 0 0 0 0 0 0 0 0 0 0 0 0 0 0 0 0 0 0 0 0 0 0
0 0 0 0 0 0 0 0 0 0 0 0 0 0 0 0 0 0 0 0 0 0 0 0 0 0 0 0 0 0 0 0 0 0 0 0 0 0 0 0 0 0 0 0
0 0 0 0 0 0 0 0 0 0 0 0 0 0 0 0 0 0 0 0 0 0 0 0 0 0 0 0 0 0 0 0 0 0 0 0 0 0 0 0 0 0 0 0
0 0 0 0 0 0 0 0 0 0 0 0 0 0 0 0 0 0 0 0 0 0 0 0 0 0 0 0 0 0 0 0 0 0 0 0 0 0 0 0 0 0 0 0
0 0 0 0 0 0 0 0 0 0 0 0 0 0 0 0 0 0 0 0 0 0 0 0 0 0 0 0 0 0 0 0 0 0 0 0 0 0 0 0 0 0 0 0
0 0 0 0 0 0 0 0 0 0 0 0 0 0 0 0 0 0 0 0 0 0 0 0 0 0 0 0 0 0 0 0 0 0 0 0 0 0 0 0 0 0 0 0
0 0 0 0 0 0 0 0 0 0 0 0 0 0 0 0 0 0 0 0 0 0 0 0 0 0 0 0 0 0 0 0 0 0 0 0 0 0 0 0 0 0 0 0
0 0 0 0 0 0 0 0 0 0 0 0 0 0 0 0 0 0 0 0 0 0 0 0 0 0 0 0 0 0 0 0 0 0 0 0 0 0 0 0 0 0 0 0
0 0 0 0 0 0 0 0 0 0 0 0 0 0 0 0 0 0 0 0 0 0 0 0 0 0 0 0 0 0 0 0 0 0 0 0 0 0 0 0 0 0 0 0
0 0 0 0 -0 -0 0 0 0 0 0 0 0 0 0 0 0 0 0 0 0 0 0 0 0 0 0 0 0 0 0 0 0 0 0 0 0 0 0 0 0 0 0 0
Wind_Speed_500mb
4 13 32 36 35 28 15 16 33 28 8 10 33 39 49 63 58 71 72 61 52 58 53 62 73 78 81 78 74 70 67 60 53 49 46 44 40 35 30 26 24 26 32 38
7 30 36 1 13 18 16 26 39 26 4 13 28 42 48 46 63 70 72 67 48 44 41 54 69 79 87 85 80 75 70 64 58 57 55 52 46 40 33 28 24 28 34 39
32 21 4 16 16 22 23 35 28 21 11 13 22 34 14 15 30 42 64 56 41 44 44 51 63 76 87 90 86 82 73 68 65 62 59 56 50 42 34 29 29 32 34 41
19 9 17 13 21 25 25 18 22 14 10 23 8 39 22 18 23 25 65 40 39 41 43 47 52 68 83 92 88 83 77 71 69 65 61 59 52 43 36 34 33 34 37 40
12 15 17 19 18 23 10 4 9 6 15 12 23 21 19 3 13 36 42 36 41 44 42 43 49 55 62 79 88 84 79 76 73 68 62 58 52 44 40 36 34 36 38 41
14 1 9 8 7 1 18 7 4 3 5 18 34 28 16 9 13 17 27 26 27 36 36 35 39 39 50 64 82 86 84 82 77 72 65 59 51 44 41 37 37 38 41 43
9 17 7 8 9 6 9 9 12 12 11 25 6 17 41 29 27 27 35 21 24 30 31 33 39 41 45 55 70 89 91 87 82 73 66 59 51 45 40 38 40 43 45 46
13 28 27 24 32 14 23 16 12 22 27 43 14 22 27 20 36 51 25 29 22 28 31 35 38 40 44 50 61 84 94 91 84 75 68 59 50 43 40 40 43 43 47 49
17 31 5 2 3 9 17 17 5 8 4 16 23 45 16 12 22 19 37 34 45 44 39 40 41 45 42 48 59 75 93 93 86 79 69 59 51 44 41 44 42 42 47 53
7 20 6 6 4 3 8 10 9 6 11 32 49 59 35 21 31 20 23 40 49 44 43 48 45 47 47 48 56 69 89 97 89 79 69 60 52 44 42 40 40 43 49 58
10 13 7 11 24 31 12 13 9 6 11 17 37 36 5 10 7 22 27 43 38 45 55 51 45 49 50 52 59 70 86 98 96 83 71 61 52 46 39 36 40 46 52 60
16 7 22 42 6 4 17 31 35 18 19 19 26 55 12 9 9 9 16 32 33 28 44 47 49 53 59 64 67 76 86 100 99 85 73 61 53 43 38 38 41 47 53 59
20 10 12 23 11 3 16 17 22 33 30 59 26 48 29 43 13 15 22 33 35 40 53 55 58 67 73 70 72 78 87 98 99 86 72 62 51 43 39 37 41 46 51 58
25 12 24 39 42 4 10 25 37 46 34 44 50 61 75 70 44 45 52 42 51 68 70 75 83 86 76 72 75 78 86 98 99 85 72 61 52 42 38 36 38 42 50 58
11 22 25 38 46 44 47 38 38 52 56 53 61 50 65 68 54 53 66 58 65 68 65 80 86 87 75 73 78 84 89 100 97 84 71 59 48 40 36 35 36 41 49 53
9 36 37 53 59 64 68 46 70 64 71 59 51 56 71 75 96 76 99 77 86 87 82 83 90 82 76 82 86 88 90 102 95 80 67 56 45 38 34 34 36 42 48 50
18 14 19 41 48 46 30 65 69 81 76 64 61 68 72 68 61 64 92 73 80 94 94 80 86 86 81 81 83 89 92 103 92 78 66 54 44 38 34 33 36 41 46 49
30 39 25 21 16 33 44 48 73 73 71 67 57 72 70 71 94 98 91 71 80 90 95 83 85 76 73 73 77 80 91 100 91 80 66 56 45 37 33 31 33 38 45 49
50 41 20 17 32 42 5 34 47 45 68 58 66 68 71 95 50 82 87 85 95 96 91 81 89 67 61 73 76 82 88 96 87 77 64 52 42 34 28 27 30 38 45 48
51 50 36 25 29 42 42 57 52 10 16 59 58 58 59 18 17 37 93 64 70 72 75 71 64 59 62 74 79 80 102 102 89 73 58 45 36 29 23 21 29 38 45 46
18 27 48 45 43 29 21 17 9 23 39 64 73 58 51 43 49 86 73 41 48 52 54 54 52 57 62 69 74 85 106 98 83 69 55 42 33 26 20 19 27 37 42 43
46 23 22 26 36 49 33 52 47 56 75 69 67 52 40 61 81 77 86 84 69 63 61 59 56 62 70 70 78 98 99 87 73 61 47 37 28 22 17 18 22 32 39 43
41 51 49 37 27 21 39 56 96 106 78 73 62 71 48 61 68 80 82 84 85 74 69 64 63 68 66 74 89 101 95 81 69 56 43 33 25 19 15 15 19 26 31 38
15 30 22 41 47 33 27 46 64 74 81 91 91 89 54 57 63 72 73 81 87 86 81 69 66 69 77 92 99 100 91 76 60 48 36 26 23 18 13 12 17 21 27 32
22 18 16 29 45 49 56 51 53 55 70 72 85 83 80 72 78 88 88 94 100 92 85 77 75 77 86 104 103 100 89 73 61 48 37 31 26 18 11 10 11 15 21 28
44 41 31 37 41 33 39 50 69 81 90 91 80 89 98 92 95 91 92 94 98 95 90 88 83 86 95 108 105 95 82 72 61 49 42 35 27 18 11 6 8 10 15 22
Wind_Direction_500mb
147 229 240 246 230 267 267 258 261 267 196 243 255 261 269 281 277 265 272 266 253 243 248 230 227 224 224 224 223 224 225 228 227 229 229 230 233 236 245 256 279 300 307 308
178 239 252 356 216 228 233 260 264 280 240 219 274 273 273 267 268 270 272 271 257 247 231 222 224 224 226 227 225 225 225 228 229 231 231 230 230 234 243 255 279 293 296 307
230 260 80 198 207 206 227 236 255 265 323 234 293 275 238 257 262 270 263 261 250 238 226 220 222 225 225 225 226 227 227 230 232 231 231 231 232 237 246 260 274 285 303 302
241 245 211 198 229 205 239 230 244 263 295 280 4 291 281 252 244 264 272 257 241 241 231 226 225 225 226 229 227 228 229 230 232 232 232 231 233 238 246 257 275 290 293 298
224 180 190 206 229 177 249 103 170 206 255 315 254 269 279 167 244 257 261 263 234 227 228 230 233 233 233 229 230 228 229 230 232 233 233 233 237 243 252 264 277 286 294 300
261 150 216 213 83 118 136 113 134 144 258 254 256 225 278 229 211 248 265 235 222 210 215 227 234 228 226 229 231 228 229 230 232 231 232 234 239 245 256 269 277 289 293 295
196 220 171 174 135 119 194 177 278 258 226 264 152 233 261 283 242 234 254 256 212 203 207 224 226 221 223 228 229 226 228 228 229 230 232 234 238 247 258 268 283 287 293 302
238 255 183 183 217 207 185 216 204 261 278 288 114 250 277 227 252 247 261 259 223 221 233 231 228 225 225 232 232 228 228 229 228 228 230 234 240 248 262 273 278 290 300 307
209 256 100 240 107 181 163 198 231 282 112 282 255 259 238 190 255 249 252 245 243 245 238 229 231 231 228 235 238 236 227 227 228 228 229 234 240 247 258 269 283 296 301 303
251 257 123 125 144 46 227 138 136 199 261 260 275 282 276 239 245 215 237 238 241 239 227 230 233 237 232 241 243 237 229 229 229 228 229 233 239 247 259 273 287 294 299 303
207 218 202 150 204 192 169 203 225 308 226 254 268 268 82 198 233 207 221 233 243 240 230 228 241 237 239 242 240 237 229 226 226 223 227 232 239 247 259 274 285 294 302 307
208 203 232 238 138 318 253 232 213 226 224 234 260 271 112 46 143 196 245 247 251 247 234 229 240 238 245 244 236 234 226 224 224 222 224 228 236 245 258 271 284 296 304 310
168 203 239 251 212 177 212 206 230 241 258 249 234 254 255 268 290 246 243 254 267 255 252 245 243 249 250 241 235 230 226 222 220 220 221 226 233 242 256 273 287 300 308 312
182 172 216 239 251 93 196 227 221 224 233 253 243 260 275 275 273 277 271 258 258 262 258 256 255 258 249 242 236 228 223 221 218 217 219 224 230 240 256 269 287 302 308 311
175 233 238 252 267 279 280 275 257 236 243 244 258 260 263 275 276 271 274 274 272 268 258 260 261 257 248 239 234 231 226 218 215 214 216 221 229 241 256 276 292 301 306 310
196 246 247 253 260 263 260 262 263 266 260 254 256 262 263 268 277 282 276 270 273 271 264 263 268 260 251 245 238 231 224 214 212 211 213 218 227 241 258 277 290 299 306 310
208 217 210 239 228 246 252 239 247 255 261 256 254 253 267 268 265 261 271 276 268 268 267 265 260 264 261 249 238 230 222 211 209 208 211 216 227 240 259 275 287 300 308 312
242 226 228 247 229 229 231 241 236 243 249 257 254 253 255 259 265 273 272 271 265 265 271 269 268 265 254 241 231 224 219 207 206 206 207 213 222 237 256 273 290 304 309 315
218 231 235 232 224 243 185 233 225 230 245 256 250 252 250 255 268 270 266 263 264 269 273 271 273 268 248 230 222 219 209 203 203 205 207 212 221 236 255 276 297 304 310 315
225 227 229 225 233 238 237 236 241 73 251 250 242 249 255 263 248 262 274 263 263 270 270 270 268 250 230 219 215 210 202 199 198 201 205 212 227 239 251 280 301 309 313 319
205 216 227 234 246 247 219 215 122 200 243 245 250 248 251 251 240 254 275 261 260 257 254 254 258 249 233 221 211 202 198 196 195 196 201 210 224 238 259 287 306 312 315 321
223 206 213 232 243 249 218 227 221 236 242 243 257 258 234 248 252 250 258 264 263 254 251 243 237 228 222 212 203 198 193 193 193 193 199 210 221 237 257 286 310 313 318 323
231 226 237 221 234 240 213 222 229 240 251 253 255 258 256 251 253 262 259 264 269 262 251 237 229 218 212 203 197 193 191 191 191 192 198 208 216 232 253 290 309 313 320 324
289 281 279 270 259 282 278 248 247 248 246 251 257 264 267 250 259 264 267 267 266 259 249 235 221 210 199 193 191 192 188 188 192 193 197 206 215 223 246 288 306 318 328 329
275 292 280 284 287 280 284 283 293 304 306 289 278 276 273 265 264 266 265 269 268 257 243 232 220 206 198 193 188 187 187 187 189 196 198 201 208 213 232 272 300 322 330 339
269 278 281 280 300 294 289 300 301 299 295 295 292 288 284 284 274 269 267 268 263 252 241 227 216 207 198 190 185 184 184 187 194 190 193 193 197 199 205 245 304 341 342 337
Wind_Speed_850mb
4 13 32 36 35 28 15 16 33 28 8 10 33 39 49 63 58 71 72 61 52 58 53 62 73 78 81 78 74 70 67 60 53 49 46 44 40 35 30 26 24 26 32 38
7 30 36 1 13 18 16 26 39 26 4 13 28 42 48 46 63 70 72 67 48 44 41 54 69 79 87 85 80 75 70 64 58 57 55 52 46 40 33 28 24 28 34 39
32 21 4 16 16 22 23 35 28 21 11 13 22 34 14 15 30 42 64 56 41 44 44 51 63 76 87 90 86 82 73 68 65 62 59 56 50 42 34 29 29 32 34 41
19 9 17 13 21 25 25 18 22 14 10 23 8 39 22 18 23 25 65 40 39 41 43 47 52 68 83 92 88 83 77 71 69 65 61 59 52 43 36 34 33 34 37 40
12 15 17 19 18 23 10 4 9 6 15 12 23 21 19 3 13 36 42 36 41 44 42 43 49 55 62 79 88 84 79 76 73 68 62 58 52 44 40 36 34 36 38 41
14 1 9 8 7 1 18 7 4 3 5 18 34 28 16 9 13 17 27 26 27 36 36 35 39 39 50 64 82 86 84 82 77 72 65 59 51 44 41 37 37 38 41 43
9 17 7 8 9 6 9 9 12 12 11 25 6 17 41 29 27 27 35 21 24 30 31 33 39 41 45 55 70 89 91 87 82 73 66 59 51 45 40 38 40 43 45 46
13 28 27 24 32 14 23 16 12 22 27 43 14 22 27 20 36 51 25 29 22 28 31 35 38 40 44 50 61 84 94 91 84 75 68 59 50 43 40 40 43 43 47 49
17 31 5 2 3 9 17 17 5 8 4 16 23 45 16 12 22 19 37 34 45 44 39 40 41 45 42 48 59 75 93 93 86 79 69 59 51 44 41 44 42 42 47 53
7 20 6 6 4 3 8 10 9 6 11 32 49 59 35 21 31 20 23 40 49 44 43 48 45 47 47 48 56 69 89 97 89 79 69 60 52 44 42 40 40 43 49 58
10 13 7 11 24 31 12 13 9 6 11 17 37 36 5 10 7 22 27 43 38 45 55 51 45 49 50 52 59 70 86 98 96 83 71 61 52 46 39 36 40 46 52 60
16 7 22 42 6 4 17 31 35 18 19 19 26 55 12 9 9 9 16 32 33 28 44 47 49 53 59 64 67 76 86 100 99 85 73 61 53 43 38 38 41 47 53 59
20 10 12 23 11 3 16 17 22 33 30 59 26 48 29 43 13 15 22 33 35 40 53 55 58 67 73 70 72 78 87 98 99 86 72 62 51 43 39 37 41 46 51 58
25 12 24 39 42 4 10 25 37 46 34 44 50 61 75 70 44 45 52 42 51 68 70 75 83 86 76 72 75 78 86 98 99 85 72 61 52 42 38 36 38 42 50 58
11 22 25 38 46 44 47 38 38 52 56 53 61 50 65 68 54 53 66 58 65 68 65 80 86 87 75 73 78 84 89 100 97 84 71 59 48 40 36 35 36 41 49 53
9 36 37 53 59 64 68 46 70 64 71 59 51 56 71 75 96 76 99 77 86 87 82 83 90 82 76 82 86 88 90 102 95 80 67 56 45 38 34 34 36 42 48 50
18 14 19 41 48 46 30 65 69 81 76 64 61 68 72 68 61 64 92 73 80 94 94 80 86 86 81 81 83 89 92 103 92 78 66 54 44 38 34 33 36 41 46 49
30 39 25 21 16 33 44 48 73 73 71 67 57 72 70 71 94 98 91 71 80 90 95 83 85 76 73 73 77 80 91 100 91 80 66 56 45 37 33 31 33 38 45 49
50 41 20 17 32 42 5 34 47 45 68 58 66 68 71 95 50 82 87 85 95 96 91 81 89 67 61 73 76 82 88 96 87 77 64 52 42 34 28 27 30 38 45 48
51 50 36 25 29 42 42 57 52 10 16 59 58 58 59 18 17 37 93 64 70 72 75 71 64 59 62 74 79 80 102 102 89 73 58 45 36 29 23 21 29 38 45 46
18 27 48 45 43 29 21 17 9 23 39 64 73 58 51 43 49 86 73 41 48 52 54 54 52 57 62 69 74 85 106 98 83 69 55 42 33 26 20 19 27 37 42 43
46 23 22 26 36 49 33 52 47 56 75 69 67 52 40 61 81 77 86 84 69 63 61 59 56 62 70 70 78 98 99 87 73 61 47 37 28 22 17 18 22 32 39 43
41 51 49 37 27 21 39 56 96 106 78 73 62 71 48 61 68 80 82 84 85 74 69 64 63 68 66 74 89 101 95 81 69 56 43 33 25 19 15 15 19 26 31 38
15 30 22 41 47 33 27 46 64 74 81 91 91 89 54 57 63 72 73 81 87 86 81 69 66 69 77 92 99 100 91 76 60 48 36 26 23 18 13 12 17 21 27 32
22 18 16 29 45 49 56 51 53 55 70 72 85 83 80 72 78 88 88 94 100 92 85 77 75 77 86 104 103 100 89 73 61 48 37 31 26 18 11 10 11 15 21 28
44 41 31 37 41 33 39 50 69 81 90 91 80 89 98 92 95 91 92 94 98 95 90 88 83 86 95 108 105 95 82 72 61 49 42 35 27 18 11 6 8 10 15 22
Wind_Direction_850mb
147 229 240 246 230 267 267 258 261 267 196 243 255 261 269 281 277 265 272 266 253 243 248 230 227 224 224 224 223 224 225 228 227 229 229 230 233 236 245 256 279 300 307 308
178 239 252 356 216 228 233 260 264 280 240 219 274 273 273 267 268 270 272 271 257 247 231 222 224 224 226 227 225 225 225 228 229 231 231 230 230 234 243 255 279 293 296 307
230 260 80 198 207 206 227 236 255 265 323 234 293 275 238 257 262 270 263 261 250 238 226 220 222 225 225 225 226 227 227 230 232 231 231 231 232 237 246 260 274 285 303 302
241 245 211 198 229 205 239 230 244 263 295 280 4 291 281 252 244 264 272 257 241 241 231 226 225 225 226 229 227 228 229 230 232 232 232 231 233 238 246 257 275 290 293 298
224 180 190 206 229 177 249 103 170 206 255 315 254 269 279 167 244 257 261 263 234 227 228 230 233 233 233 229 230 228 229 230 232 233 233 233 237 243 252 264 277 286 294 300
261 150 216 213 83 118 136 113 134 144 258 254 256 225 278 229 211 248 265 235 222 210 215 227 234 228 226 229 231 228 229 230 232 231 232 234 239 245 256 269 277 289 293 295
196 220 171 174 135 119 194 177 278 258 226 264 152 233 261 283 242 234 254 256 212 203 207 224 226 221 223 228 229 226 228 228 229 230 232 234 238 247 258 268 283 287 293 302
238 255 183 183 217 207 185 216 204 261 278 288 114 250 277 227 252 247 261 259 223 221 233 231 228 225 225 232 232 228 228 229 228 228 230 234 240 248 262 273 278 290 300 307
209 256 100 240 107 181 163 198 231 282 112 282 255 259 238 190 255 249 252 245 243 245 238 229 231 231 228 235 238 236 227 227 228 228 229 234 240 247 258 269 283 296 301 303
251 257 123 125 144 46 227 138 136 199 261 260 275 282 276 239 245 215 237 238 241 239 227 230 233 237 232 241 243 237 229 229 229 228 229 233 239 247 259 273 287 294 299 303
207 218 202 150 204 192 169 203 225 308 226 254 268 268 82 198 233 207 221 233 243 240 230 228 241 237 239 242 240 237 229 226 226 223 227 232 239 247 259 274 285 294 302 307
208 203 232 238 138 318 253 232 213 226 224 234 260 271 112 46 143 196 245 247 251 247 234 229 240 238 245 244 236 234 226 224 224 222 224 228 236 245 258 271 284 296 304 310
168 203 239 251 212 177 212 206 230 241 258 249 234 254 255 268 290 246 243 254 267 255 252 245 243 249 250 241 235 230 226 222 220 220 221 226 233 242 256 273 287 300 308 312
182 172 216 239 251 93 196 227 221 224 233 253 243 260 275 275 273 277 271 258 258 262 258 256 255 258 249 242 236 228 223 221 218 217 219 224 230 240 256 269 287 302 308 311
175 233 238 252 267 279 280 275 257 236 243 244 258 260 263 275 276 271 274 274 272 268 258 260 261 257 248 239 234 231 226 218 215 214 216 221 229 241 256 276 292 301 306 310
196 246 247 253 260 263 260 262 263 266 260 254 256 262 263 268 277 282 276 270 273 271 264 263 268 260 251 245 238 231 224 214 212 211 213 218 227 241 258 277 290 299 306 310
208 217 210 239 228 246 252 239 247 255 261 256 254 253 267 268 265 261 271 276 268 268 267 265 260 264 261 249 238 230 222 211 209 208 211 216 227 240 259 275 287 300 308 312
242 226 228 247 229 229 231 241 236 243 249 257 254 253 255 259 265 273 272 271 265 265 271 269 268 265 254 241 231 224 219 207 206 206 207 213 222 237 256 273 290 304 309 315
218 231 235 232 224 243 185 233 225 230 245 256 250 252 250 255 268 270 266 263 264 269 273 271 273 268 248 230 222 219 209 203 203 205 207 212 221 236 255 276 297 304 310 315
225 227 229 225 233 238 237 236 241 73 251 250 242 249 255 263 248 262 274 263 263 270 270 270 268 250 230 219 215 210 202 199 198 201 205 212 227 239 251 280 301 309 313 319
205 216 227 234 246 247 219 215 122 200 243 245 250 248 251 251 240 254 275 261 260 257 254 254 258 249 233 221 211 202 198 196 195 196 201 210 224 238 259 287 306 312 315 321
223 206 213 232 243 249 218 227 221 236 242 243 257 258 234 248 252 250 258 264 263 254 251 243 237 228 222 212 203 198 193 193 193 193 199 210 221 237 257 286 310 313 318 323
231 226 237 221 234 240 213 222 229 240 251 253 255 258 256 251 253 262 259 264 269 262 251 237 229 218 212 203 197 193 191 191 191 192 198 208 216 232 253 290 309 313 320 324
289 281 279 270 259 282 278 248 247 248 246 251 257 264 267 250 259 264 267 267 266 259 249 235 221 210 199 193 191 192 188 188 192 193 197 206 215 223 246 288 306 318 328 329
275 292 280 284 287 280 284 283 293 304 306 289 278 276 273 265 264 266 265 269 268 257 243 232 220 206 198 193 188 187 187 187 189 196 198 201 208 213 232 272 300 322 330 339
269 278 281 280 300 294 289 300 301 299 295 295 292 288 284 284 274 269 267 268 263 252 241 227 216 207 198 190 185 184 184 187 194 190 193 193 197 199 205 245 304 341 342 337